This is the latest recevied weather packets stored in our database for station/object AJ5AG. If no packets are shown the sender has not sent any weather packets the latest 10 day(s).
| Time | Temp. | Humidity | Pressure | Rain* | Wind** | Luminosity | Snow |
|---|---|---|---|---|---|---|---|
| 1777629771 | 16.11° C | 98% | 1015.5 hPa | 10.67 mm | - | 0 W/m² | - |
| 1777629467 | 16.11° C | 98% | 1015.7 hPa | 8.89 mm | - | 0 W/m² | - |
| 1777629164 | 16.11° C | 98% | 1015.7 hPa | 7.87 mm | - | 0 W/m² | - |
| 1777628860 | 16.11° C | 98% | 1015.3 hPa | 3.05 mm | - | 0 W/m² | - |
| 1777628557 | 16.11° C | 98% | 1014.7 hPa | 3.05 mm | - | 0 W/m² | - |
| 1777628253 | 16.11° C | 98% | 1014.6 hPa | 3.05 mm | - | 0 W/m² | - |
| 1777627949 | 16.11° C | 98% | 1014.8 hPa | 4.83 mm | - | 0 W/m² | - |
| 1777627643 | 16.11° C | 98% | 1015.5 hPa | 4.83 mm | - | 0 W/m² | - |
| 1777627342 | 16.11° C | 98% | 1015.4 hPa | 1.27 mm | - | 0 W/m² | - |
| 1777627040 | 16.11° C | 98% | 1014.9 hPa | 0 mm | - | 0 W/m² | - |
| 1777626735 | 16.11° C | 98% | 1015.2 hPa | 0 mm | - | 0 W/m² | - |
| 1777626432 | 16.11° C | 98% | 1014.8 hPa | 1.78 mm | - | 0 W/m² | - |
| 1777626131 | 16.11° C | 98% | 1014.9 hPa | 1.78 mm | - | 0 W/m² | - |
| 1777625826 | 16.11° C | 98% | 1014.7 hPa | 1.27 mm | - | 0 W/m² | - |
| 1777625522 | 16.11° C | 98% | 1014.5 hPa | 3.05 mm | - | 0 W/m² | - |
| 1777625217 | 16.11° C | 98% | 1014.8 hPa | 4.83 mm | - | 0 W/m² | - |
| 1777624914 | 16.11° C | 98% | 1014.8 hPa | 6.1 mm | - | 0 W/m² | - |
| 1777624610 | 16.67° C | 98% | 1015.1 hPa | 6.1 mm | - | 0 W/m² | - |
| 1777624310 | 16.67° C | 98% | 1014.7 hPa | 4.32 mm | - | 0 W/m² | - |
| 1777624009 | 16.67° C | 98% | 1015.7 hPa | 1.27 mm | - | 0 W/m² | - |
| 1777623705 | 16.67° C | 98% | 1015.5 hPa | 1.78 mm | - | 0 W/m² | - |
| 1777623402 | 16.67° C | 98% | 1015.1 hPa | 3.56 mm | - | 0 W/m² | - |
| 1777623098 | 16.67° C | 98% | 1014.8 hPa | 0 mm | - | 0 W/m² | - |
| 1777622796 | 16.67° C | 98% | 1014.8 hPa | 1.27 mm | - | 0 W/m² | - |
| 1777622492 | 16.67° C | 98% | 1014.4 hPa | 3.05 mm | - | 0 W/m² | - |
* Rain latest hour (hover to see other rain measurements)
** Current wind speed in m/s (hover to see current wind gust speed)